KUG295 OKKK-OMDB

Flight info

Callsign KUG295
Flight time N/A
Altitude 37000
Route BOXIK B416 IMDOX DCT LONOS DCT GEPUT DCT OBNAX DCT KOBOK DCT BOTOB DCT UKUBU DCT NALPO DCT SOKAK DCT KIVUS DCT PUSOT P559 AMBOV Q322 DATOB
Aircraft B739/M-SDE2E3FGHIRWXY/LB1

Departure

Time N/A
Airport Kuwait International Airport (OKKK)

Arrival

Time 2026-05-05 08:08
Airport Dubai International Airport (OMDB)
Time Latitude Longitude Altitude Speed Heading
2026-05-05 07:06 28.35097 49.44279 25684 ft 469 kts 144°
2026-05-05 07:07 28.32635 49.46713 25974 ft 470 kts 144°
2026-05-05 07:07 28.30163 49.49153 26261 ft 471 kts 145°
2026-05-05 07:07 28.27682 49.51599 26520 ft 474 kts 145°
2026-05-05 07:07 28.25190 49.54057 26741 ft 476 kts 144°
2026-05-05 07:08 28.22686 49.56527 26981 ft 478 kts 145°
2026-05-05 07:08 28.20106 49.58895 27208 ft 476 kts 149°
2026-05-05 07:08 28.17421 49.61094 27462 ft 477 kts 151°
2026-05-05 07:08 28.14690 49.63235 27691 ft 478 kts 152°
2026-05-05 07:09 28.11939 49.65363 27920 ft 480 kts 152°
2026-05-05 07:09 28.09180 49.67504 28143 ft 482 kts 152°
2026-05-05 07:09 28.06419 49.69664 28355 ft 483 kts 152°
2026-05-05 07:09 28.03654 49.71844 28579 ft 485 kts 152°
2026-05-05 07:10 28.00885 49.74037 28775 ft 487 kts 152°
2026-05-05 07:10 27.98103 49.76247 28976 ft 489 kts 152°
2026-05-05 07:10 27.95311 49.78466 29221 ft 490 kts 152°
2026-05-05 07:10 27.92523 49.80682 29551 ft 489 kts 152°
2026-05-05 07:11 27.89784 49.82858 29865 ft 488 kts 152°
2026-05-05 07:11 27.87001 49.85065 30083 ft 489 kts 152°
2026-05-05 07:11 27.84208 49.87276 30313 ft 490 kts 152°
2026-05-05 07:11 27.81424 49.89479 30594 ft 489 kts 152°
2026-05-05 07:12 27.78639 49.91682 30892 ft 488 kts 152°
2026-05-05 07:12 27.75862 49.93877 31179 ft 487 kts 153°
2026-05-05 07:12 27.73087 49.96068 31433 ft 487 kts 153°
2026-05-05 07:12 27.70307 49.98261 31650 ft 488 kts 153°
2026-05-05 07:13 27.67521 50.00456 31838 ft 490 kts 153°
2026-05-05 07:13 27.64724 50.02661 32120 ft 490 kts 153°
2026-05-05 07:13 27.61940 50.04855 32459 ft 488 kts 153°
2026-05-05 07:13 27.59165 50.07042 32782 ft 486 kts 153°
2026-05-05 07:14 27.56387 50.09227 33053 ft 486 kts 153°
2026-05-05 07:14 27.53613 50.11406 33266 ft 487 kts 153°
2026-05-05 07:14 27.50832 50.13589 33450 ft 489 kts 153°
2026-05-05 07:14 27.48038 50.15783 33701 ft 488 kts 153°
2026-05-05 07:15 27.45255 50.17969 33983 ft 487 kts 154°
2026-05-05 07:15 27.42493 50.20160 34255 ft 486 kts 153°
2026-05-05 07:15 27.39751 50.22384 34459 ft 486 kts 153°
2026-05-05 07:15 27.37013 50.24623 34639 ft 487 kts 152°
2026-05-05 07:16 27.34273 50.26868 34806 ft 487 kts 153°
2026-05-05 07:16 27.28777 50.31351 34805 ft 487 kts 153°
2026-05-05 07:17 27.23304 50.35797 34811 ft 484 kts 153°
2026-05-05 07:17 27.17890 50.40180 34788 ft 482 kts 153°
2026-05-05 07:18 27.12416 50.44607 34809 ft 481 kts 153°
2026-05-05 07:18 27.07019 50.48965 34815 ft 481 kts 153°
2026-05-05 07:19 27.01584 50.53378 34812 ft 486 kts 149°
2026-05-05 07:19 26.99092 50.56014 34795 ft 499 kts 137°
2026-05-05 07:19 26.97007 50.59169 34810 ft 510 kts 127°
2026-05-05 07:20 26.94097 50.66537 34820 ft 521 kts 115°
2026-05-05 07:20 26.91592 50.74189 34804 ft 523 kts 115°
2026-05-05 07:21 26.89046 50.81816 34800 ft 523 kts 116°
2026-05-05 07:21 26.86435 50.89414 34795 ft 522 kts 116°
2026-05-05 07:22 26.83807 50.96973 34795 ft 520 kts 116°
2026-05-05 07:22 26.81201 51.04458 34794 ft 518 kts 116°
2026-05-05 07:23 26.78591 51.11952 34796 ft 516 kts 116°
2026-05-05 07:23 26.75986 51.19423 34802 ft 514 kts 116°
2026-05-05 07:24 26.73387 51.26861 34796 ft 512 kts 116°
2026-05-05 07:24 26.71229 51.33024 34794 ft 511 kts 116°
2026-05-05 07:25 26.68635 51.40419 34802 ft 510 kts 116°
2026-05-05 07:25 26.66037 51.47811 34804 ft 510 kts 116°
2026-05-05 07:26 26.63437 51.55195 34805 ft 511 kts 116°
2026-05-05 07:26 26.60829 51.62585 34795 ft 511 kts 116°
2026-05-05 07:27 26.58215 51.69980 34798 ft 512 kts 116°
2026-05-05 07:27 26.55601 51.77381 34803 ft 513 kts 116°
2026-05-05 07:28 26.53035 51.84815 34798 ft 513 kts 115°
2026-05-05 07:28 26.50479 51.92262 34804 ft 514 kts 115°
2026-05-05 07:29 26.47913 51.99697 34797 ft 513 kts 115°
2026-05-05 07:29 26.45336 52.07132 34800 ft 513 kts 115°
2026-05-05 07:30 26.42757 52.14550 34796 ft 513 kts 115°
2026-05-05 07:30 26.38900 52.25620 34803 ft 512 kts 115°
2026-05-05 07:31 26.36315 52.33022 34792 ft 512 kts 115°
2026-05-05 07:31 26.33730 52.40412 34802 ft 511 kts 115°
2026-05-05 07:32 26.31143 52.47790 34805 ft 511 kts 115°
2026-05-05 07:32 26.28552 52.55167 34804 ft 511 kts 115°
2026-05-05 07:33 26.25957 52.62538 34808 ft 511 kts 115°
2026-05-05 07:33 26.23351 52.69904 34795 ft 511 kts 116°
2026-05-05 07:34 26.20648 52.77205 34802 ft 510 kts 116°
2026-05-05 07:34 26.17906 52.84489 34804 ft 510 kts 116°
2026-05-05 07:35 26.15173 52.91773 34803 ft 510 kts 116°
2026-05-05 07:35 26.12443 52.99068 34803 ft 510 kts 116°
2026-05-05 07:36 26.09713 53.06355 34791 ft 510 kts 116°
2026-05-05 07:36 26.06997 53.13592 34804 ft 510 kts 116°
2026-05-05 07:37 26.04258 53.20873 34799 ft 510 kts 116°
2026-05-05 07:37 26.01524 53.28127 34801 ft 510 kts 116°
2026-05-05 07:38 25.98778 53.35400 34798 ft 510 kts 116°
2026-05-05 07:38 25.97399 53.39047 34512 ft 516 kts 116°
2026-05-05 07:38 25.95994 53.42756 33787 ft 522 kts 116°
2026-05-05 07:39 25.94585 53.46477 32957 ft 522 kts 116°
2026-05-05 07:39 25.93178 53.50196 32124 ft 522 kts 116°
2026-05-05 07:39 25.91830 53.53942 31299 ft 523 kts 114°
2026-05-05 07:39 25.90555 53.57711 30719 ft 518 kts 113°
2026-05-05 07:40 25.89309 53.61446 30108 ft 514 kts 113°
2026-05-05 07:40 25.88060 53.65149 29442 ft 510 kts 113°
2026-05-05 07:40 25.86806 53.68808 28793 ft 504 kts 113°
2026-05-05 07:40 25.85556 53.72421 28190 ft 498 kts 113°
2026-05-05 07:41 25.84322 53.75970 27746 ft 489 kts 113°
2026-05-05 07:41 25.83101 53.79472 27139 ft 484 kts 113°
2026-05-05 07:41 25.81894 53.82929 26601 ft 478 kts 112°
2026-05-05 07:41 25.80699 53.86348 26024 ft 473 kts 112°
2026-05-05 07:42 25.79514 53.89735 25469 ft 468 kts 112°
2026-05-05 07:42 25.78341 53.93085 24910 ft 464 kts 112°
2026-05-05 07:42 25.77179 53.96403 24331 ft 460 kts 112°
2026-05-05 07:42 25.76025 53.99700 23773 ft 456 kts 111°
2026-05-05 07:43 25.74903 54.02962 23313 ft 450 kts 110°
2026-05-05 07:43 25.73882 54.06214 22760 ft 443 kts 109°
2026-05-05 07:43 25.72915 54.09437 22223 ft 438 kts 108°
2026-05-05 07:43 25.71963 54.12626 21654 ft 433 kts 109°
2026-05-05 07:44 25.71013 54.15772 21117 ft 429 kts 109°
2026-05-05 07:44 25.70060 54.18892 20579 ft 425 kts 109°
2026-05-05 07:44 25.69112 54.21967 20042 ft 421 kts 109°
2026-05-05 07:44 25.68163 54.25026 19516 ft 417 kts 109°
2026-05-05 07:45 25.67222 54.28062 18967 ft 415 kts 109°
2026-05-05 07:45 25.66288 54.31074 18425 ft 412 kts 109°
2026-05-05 07:45 25.65358 54.34073 17875 ft 410 kts 109°
2026-05-05 07:45 25.64443 54.37050 17322 ft 406 kts 109°
2026-05-05 07:46 25.63542 54.40000 16787 ft 403 kts 109°
2026-05-05 07:46 25.62656 54.42901 16253 ft 391 kts 108°
2026-05-05 07:46 25.61796 54.45711 15743 ft 379 kts 108°
2026-05-05 07:46 25.60958 54.48440 15271 ft 369 kts 108°
2026-05-05 07:47 25.60142 54.51096 14788 ft 359 kts 108°
2026-05-05 07:47 25.59347 54.53681 14329 ft 351 kts 108°
2026-05-05 07:47 25.58568 54.56215 13878 ft 345 kts 108°
2026-05-05 07:47 25.57806 54.58691 13392 ft 343 kts 108°
2026-05-05 07:48 25.57013 54.61199 12929 ft 349 kts 109°
2026-05-05 07:48 25.56174 54.63792 12666 ft 354 kts 109°
2026-05-05 07:48 25.55355 54.66311 12485 ft 341 kts 109°
2026-05-05 07:48 25.54587 54.68674 12421 ft 319 kts 109°
2026-05-05 07:49 25.53860 54.70913 12373 ft 299 kts 109°
2026-05-05 07:49 25.53176 54.73025 12271 ft 285 kts 108°
2026-05-05 07:49 25.52520 54.75054 12159 ft 275 kts 108°
2026-05-05 07:49 25.51880 54.77030 12067 ft 272 kts 108°
2026-05-05 07:50 25.51218 54.79013 11980 ft 281 kts 111°
2026-05-05 07:50 25.50447 54.81027 11878 ft 285 kts 112°
2026-05-05 07:50 25.49651 54.83039 11762 ft 285 kts 112°
2026-05-05 07:50 25.48858 54.85039 11638 ft 283 kts 113°
2026-05-05 07:51 25.48073 54.87028 11525 ft 280 kts 112°
2026-05-05 07:51 25.47300 54.89001 11410 ft 279 kts 112°
2026-05-05 07:51 25.46534 54.90961 11300 ft 277 kts 112°
2026-05-05 07:51 25.45772 54.92914 11188 ft 276 kts 112°
2026-05-05 07:52 25.45013 54.94860 11071 ft 275 kts 112°
2026-05-05 07:52 25.44217 54.96784 10940 ft 276 kts 117°
2026-05-05 07:52 25.43273 54.98634 10794 ft 277 kts 119°
2026-05-05 07:52 25.42291 55.00473 10639 ft 278 kts 120°
2026-05-05 07:53 25.41311 55.02310 10492 ft 278 kts 119°
2026-05-05 07:53 25.40336 55.04155 10328 ft 277 kts 118°
2026-05-05 07:53 25.39375 55.05991 10167 ft 275 kts 118°
2026-05-05 07:53 25.38421 55.07821 10004 ft 273 kts 118°
2026-05-05 07:54 25.37479 55.09634 9857 ft 271 kts 118°
2026-05-05 07:54 25.36545 55.11432 9703 ft 269 kts 118°
2026-05-05 07:54 25.35532 55.13158 9539 ft 268 kts 127°
2026-05-05 07:54 25.34304 55.14696 9383 ft 266 kts 131°
2026-05-05 07:55 25.33045 55.16186 9230 ft 264 kts 131°
2026-05-05 07:55 25.31812 55.17648 9076 ft 263 kts 131°
2026-05-05 07:55 25.30573 55.19134 8924 ft 262 kts 130°
2026-05-05 07:55 25.29345 55.20621 8778 ft 262 kts 130°
2026-05-05 07:56 25.28125 55.22111 8631 ft 263 kts 130°
2026-05-05 07:56 25.26907 55.23603 8427 ft 260 kts 130°
2026-05-05 07:56 25.25696 55.25089 8028 ft 259 kts 130°
2026-05-05 07:56 25.24486 55.26575 7507 ft 261 kts 130°
2026-05-05 07:57 25.23281 55.28051 7184 ft 256 kts 130°
2026-05-05 07:57 25.22090 55.29512 6726 ft 257 kts 130°
2026-05-05 07:57 25.20894 55.30978 6307 ft 256 kts 130°
2026-05-05 07:57 25.19708 55.32431 5904 ft 253 kts 130°
2026-05-05 07:58 25.18549 55.33885 5499 ft 251 kts 125°
2026-05-05 07:58 25.17596 55.35486 5083 ft 248 kts 120°
2026-05-05 07:58 25.16711 55.37110 4703 ft 246 kts 119°
2026-05-05 07:58 25.15829 55.38715 4320 ft 244 kts 120°
2026-05-05 07:59 25.14952 55.40307 3946 ft 241 kts 120°
2026-05-05 07:59 25.14098 55.41832 3823 ft 227 kts 120°
2026-05-05 07:59 25.13279 55.43286 3649 ft 221 kts 120°
2026-05-05 07:59 25.12471 55.44716 3394 ft 220 kts 120°
2026-05-05 08:00 25.11662 55.46148 3105 ft 220 kts 120°
2026-05-05 08:00 25.10854 55.47581 2859 ft 219 kts 120°
2026-05-05 08:00 25.10069 55.48991 2611 ft 219 kts 120°
2026-05-05 08:00 25.09275 55.50417 2376 ft 218 kts 120°
2026-05-05 08:01 25.08480 55.51843 2185 ft 218 kts 120°
2026-05-05 08:01 25.07692 55.53257 2124 ft 215 kts 120°
2026-05-05 08:01 25.06919 55.54638 2058 ft 208 kts 120°
2026-05-05 08:01 25.06160 55.55993 2007 ft 206 kts 120°
2026-05-05 08:02 25.05434 55.57338 1989 ft 204 kts 112°
2026-05-05 08:02 25.05363 55.58826 2027 ft 198 kts 68°
2026-05-05 08:02 25.06254 55.59948 2018 ft 198 kts 37°
2026-05-05 08:02 25.07353 55.60913 1996 ft 204 kts 40°
2026-05-05 08:03 25.08449 55.61903 1999 ft 203 kts 34°
2026-05-05 08:03 25.09772 55.62304 1994 ft 200 kts 351°
2026-05-05 08:03 25.10946 55.61563 2018 ft 199 kts 309°
2026-05-05 08:03 25.11810 55.60349 2008 ft 204 kts 312°
2026-05-05 08:04 25.12716 55.59149 1990 ft 203 kts 306°
2026-05-05 08:04 25.13483 55.57851 1998 ft 202 kts 302°
2026-05-05 08:04 25.14215 55.56525 1990 ft 201 kts 301°
2026-05-05 08:04 25.14938 55.55206 1986 ft 201 kts 301°
2026-05-05 08:05 25.15659 55.53895 1992 ft 200 kts 302°
2026-05-05 08:05 25.16379 55.52584 2001 ft 200 kts 302°
2026-05-05 08:05 25.17104 55.51267 1987 ft 201 kts 301°
2026-05-05 08:05 25.17809 55.49985 1981 ft 190 kts 301°
2026-05-05 08:06 25.18492 55.48743 1853 ft 190 kts 301°
2026-05-05 08:06 25.19177 55.47501 1630 ft 188 kts 301°
2026-05-05 08:06 25.19850 55.46278 1394 ft 185 kts 301°
2026-05-05 08:06 25.20509 55.45082 1174 ft 180 kts 301°
2026-05-05 08:07 25.21157 55.43905 959 ft 178 kts 302°
2026-05-05 08:07 25.21799 55.42741 823 ft 177 kts 302°
2026-05-05 08:07 25.22450 55.41557 530 ft 181 kts 302°
2026-05-05 08:07 25.23085 55.40399 296 ft 173 kts 301°
2026-05-05 08:08 25.23687 55.39301 57 ft 161 kts 301°
2026-05-05 08:08 25.24236 55.38303 22 ft 138 kts 303°
2026-05-05 08:08 25.24645 55.37586 22 ft 71 kts 301°
2026-05-05 08:08 25.24782 55.37241 21 ft 24 kts 273°
2026-05-05 08:09 25.24772 55.37127 23 ft 6 kts 242°
2026-05-05 08:09 25.24769 55.37123 22 ft 6 kts 236°
2026-05-05 08:10 25.24742 55.37106 21 ft 16 kts 187°
2026-05-05 08:10 25.24649 55.37218 22 ft 21 kts 122°
2026-05-05 08:10 25.24598 55.37308 23 ft 20 kts 121°
2026-05-05 08:10 25.24467 55.37546 21 ft 44 kts 121°
2026-05-05 08:11 25.24377 55.37711 21 ft 34 kts 121°